User: anonymous   Login
Location: Unspecified
(0.0000°N, 0.0000°E)
Time: 00:04:27
(UTC+00:00)
Language:

QIANFAN-45 - Orbit

View from above orbital plane
View from above orbital plane
View from above satellite
View from above satellite

Ground track
Ground track

The orbit is defined by the following mean orbital elements,

1 62246U          26145.61501117 +.00000000 +00000-0 +11213-3 0 00004
2 62246  89.0105  24.7577 0016407  79.8160 280.4840 13.51005212    02
Epoch (UTC): 25 May 2026 14:45:36
Eccentricity: 0.0016407
inclination: 89.0105°
perigee height: 1056 km
apogee height: 1081 km
right ascension of ascending node: 24.7577°
argument of perigee: 79.8160°
revolutions per day: 13.51005212
mean anomaly at epoch: 280.4840°

The dashed part of the orbit path shows where the satellite is in the earth's shadow,  

DLR